Location: La Fredeussais
(48.1780°N, 1.3980°W)
Time: 16:24:28
(UTC+00:00)

MetOp-B - Pass Details

Date: 09 May 2021
Orbit: 819 x 821 km, 98.7° (Epoch: 24 June)

Event Time Altitude Azimuth Distance (km) Brightness Sun altitude
Exits shadow 20:57:14 12° 167° (SSE) 2,290 6.0 -12.4°
Maximum altitude 21:02:17 82° 256° (WSW) 836 4.2 -13.0°
Drops below altitude 10° 21:07:41 10° 344° (NNW) 2,429 7.6 -13.6°
Sets 21:10:02 0° 345° (NNW) 3,366 8.5 -13.9°
